カタログに戻る

SCOUT A R/B

運用中PO
NORAD 2967·ROCKET BODY·🇺🇸 United States

打ち上げ Sep 25, 1967 から Vandenberg Space Force Base

Loading…

次のパス (今後24時間)

TLE

最新Source: Space-Track

元期: Sep 14, 2026, 14:09 UTC

1  2967U 67092B   26257.59026801  .00000095  00000-0  12614-3 0  9992
2  2967  89.2628   2.4140 0046107 200.1325 223.2938 13.52406356907014

AllMySatでSCOUT A R/Bをリアルタイム追跡

Download on the App Store